Temp_Advection
nan nan nan nan nan nan nan nan nan nan nan nan nan nan nan nan nan nan nan nan nan nan
nan 0 0 0 0 0 0 0 0 0 0 0 0 0 -0 -0 0 0 0 0 0 nan
nan 0 0 0 0 0 0 0 0 0 0 0 0 0 0 0 0 0 0 0 0 nan
nan 0 0 0 0 0 0 0 0 0 0 0 0 0 0 0 0 0 0 0 -0 nan
nan 0 0 0 0 0 0 0 0 0 0 0 0 0 0 0 0 0 0 1 0 nan
nan -0 -0 -0 -0 -0 0 0 0 -0 0 0 0 0 0 0 0 0 0 0 1 nan
nan -0 -0 -0 -0 -0 -0 0 0 0 -0 -0 0 0 0 -0 -0 -0 -0 0 0 nan
nan -0 -0 -0 -0 -0 -0 -0 -0 -0 0 0 0 0 0 -0 -0 -0 -0 -0 -0 nan
nan -0 -0 -0 -0 -0 -0 -0 -0 -0 -0 -0 0 0 0 0 -0 -0 -0 -1 -0 nan
nan -0 -0 -0 -0 -0 -0 -0 -0 -0 -1 -1 -0 -0 -0 0 0 -0 -1 -0 -1 nan
nan -0 -0 -0 -0 -0 -0 -0 -1 -0 -0 -1 -1 -1 -1 -1 -0 -0 -0 -0 -1 nan
nan -0 -0 -0 -0 -1 -1 -0 -1 -1 -1 -0 -1 -1 -1 -1 -1 -1 -0 -0 -1 nan
nan -0 -0 -0 -0 -0 -1 -1 -1 -1 -1 -1 -0 -0 -0 -0 -0 -1 -0 -0 -0 nan
nan nan nan nan nan nan nan nan nan nan nan nan nan nan nan nan nan nan nan nan nan nan
Wind_Speed
12 13 13 13 14 14 15 15 17 18 18 18 18 18 19 19 20 20 20 21 21 22
11 11 11 11 13 13 14 15 17 18 19 20 20 21 22 23 23 24 25 25 25 26
12 11 11 12 14 15 15 15 16 16 18 19 21 22 24 26 26 27 28 29 29 29
12 12 13 13 14 14 14 16 16 18 19 21 22 24 26 27 29 30 30 31 32 32
6 7 9 10 12 13 14 15 16 18 20 21 22 24 26 27 29 32 34 34 35 36
7 8 8 9 9 10 11 12 14 15 16 18 20 21 23 25 27 29 31 32 34 36
4 3 3 4 7 10 12 14 16 17 18 20 21 22 23 24 26 27 29 30 33 35
1 2 5 8 10 12 14 16 18 20 21 22 24 24 25 27 29 31 32 32 33 34
2 5 7 9 12 14 17 19 21 23 24 25 27 27 27 29 32 33 35 37 36 36
3 6 9 12 15 18 21 24 25 27 27 28 28 28 30 31 33 35 37 38 39 40
6 9 13 17 20 24 27 29 29 30 30 32 32 31 31 31 33 36 36 37 37 36
10 14 18 22 26 28 30 30 30 31 31 32 32 29 29 29 31 33 35 34 34 35
15 19 23 27 29 29 29 31 31 32 31 30 30 28 28 27 31 34 35 35 35 36
19 23 26 28 28 29 30 32 31 31 31 29 29 29 28 28 30 32 36 38 39 37
Wind_Direction
279 286 289 288 289 293 294 290 282 278 277 280 281 282 284 284 283 284 282 281 281 279
276 287 292 293 295 298 298 295 287 282 281 282 282 283 284 285 285 284 282 280 278 278
273 280 286 292 296 298 298 301 301 296 291 289 288 288 286 286 285 283 283 282 281 279
268 277 286 295 299 301 302 300 297 294 293 292 291 290 289 288 287 286 286 283 282 280
285 293 299 299 300 302 303 302 301 300 298 297 295 292 290 290 289 287 286 284 281 281
293 297 302 306 310 315 319 319 317 315 312 310 307 305 302 298 294 290 288 286 282 281
297 306 331 338 334 329 325 323 321 319 316 313 309 307 305 301 298 295 292 289 286 283
129 345 339 337 334 328 325 322 319 316 312 310 307 306 305 302 299 297 294 292 291 289
337 340 337 331 330 330 328 325 321 318 315 311 308 307 303 300 297 295 294 294 292 291
322 326 331 330 328 326 324 322 321 319 317 314 311 309 305 301 298 296 294 292 292 290
319 325 323 323 325 325 324 324 323 321 320 318 317 316 312 308 302 300 299 298 297 295
313 317 321 324 325 323 322 322 321 321 320 319 319 320 317 314 308 304 303 303 300 298
313 321 322 321 320 321 321 320 320 319 320 321 322 323 324 321 314 312 312 310 309 308
317 317 317 318 320 320 319 318 317 317 321 323 322 321 319 318 315 313 310 309 311 309
Height
1526 1526 1525 1524 1524 1523 1522 1521 1520 1519 1519 1518 1517 1516 1515 1514 1513 1512 1511 1510 1508 1507
1523 1523 1522 1521 1521 1520 1519 1518 1517 1516 1515 1514 1513 1512 1510 1509 1508 1507 1506 1504 1503 1501
1520 1520 1519 1518 1518 1517 1516 1515 1514 1513 1511 1510 1508 1507 1505 1504 1503 1502 1500 1498 1497 1496
1516 1516 1516 1516 1515 1515 1513 1512 1511 1509 1507 1505 1504 1502 1500 1499 1497 1495 1494 1492 1490 1488
1514 1514 1514 1513 1512 1511 1510 1508 1507 1505 1503 1501 1499 1497 1495 1493 1491 1488 1486 1485 1483 1480
1512 1512 1512 1511 1509 1508 1507 1506 1504 1502 1500 1497 1495 1492 1489 1487 1484 1482 1479 1477 1474 1472
1510 1510 1509 1509 1507 1506 1505 1503 1501 1498 1495 1493 1490 1487 1484 1481 1478 1474 1471 1468 1465 1463
1509 1508 1508 1506 1505 1504 1501 1499 1496 1494 1491 1488 1484 1482 1478 1474 1470 1467 1463 1460 1457 1453
1507 1506 1505 1504 1502 1501 1498 1495 1492 1489 1486 1482 1479 1475 1472 1468 1463 1460 1455 1451 1449 1445
1505 1504 1503 1501 1499 1497 1494 1491 1488 1484 1480 1476 1473 1469 1465 1461 1454 1450 1446 1443 1439 1436
1503 1502 1500 1498 1495 1492 1489 1485 1482 1477 1473 1468 1465 1461 1457 1452 1446 1441 1437 1433 1430 1426
1500 1498 1496 1493 1490 1487 1483 1479 1474 1470 1466 1462 1457 1453 1449 1444 1437 1432 1428 1425 1421 1417
1496 1494 1491 1488 1484 1481 1476 1472 1468 1464 1460 1455 1451 1447 1443 1437 1431 1425 1420 1415 1411 1407
1492 1489 1486 1483 1478 1474 1470 1466 1462 1458 1454 1449 1445 1440 1436 1432 1425 1419 1412 1406 1401 1398